Date String (YYYY-MM-DD hh:mm:ss) UTC,Instrument flags,Ambient pressure (hPa),Sample flow (lpm),Bypass flow (lpm),Sample temperature (°C),Ambient temperature (°C),ASC tube jacket temperature (°C),LED temperature (°C),Box temperature (°C),Sample RH (%),Span deviation,Mass concentration (μg/m³),Mass concentration (μg/m³),Mass concentration (μg/m³)
DateTimeUTC,F1_M11,P_M11,Q1_M11,Q2_M11,T1_M11,T2_M11,T3_M11,T4_M11,T5_M11,U1_M11,ZSPAN_M11,X0_M11,X2_M11,X1_M11
2022-04-26 12:00:00,,0829.6,5.00,0.00,22.9,22.0,00.0,31.9,24.7,14.2,0000.0,0007.63,0004.49,0003.94
2022-04-26 12:01:00,,0829.6,5.00,0.00,22.9,22.0,00.0,31.9,24.7,14.2,0000.0,0007.69,0004.48,0003.93
2022-04-26 12:02:00,,0829.6,4.98,0.00,22.9,22.0,00.0,31.9,24.7,14.2,0000.0,0007.76,0004.47,0003.92
2022-04-26 12:03:00,,0829.6,5.01,0.00,22.9,22.0,00.0,31.9,24.7,14.2,0000.0,0007.85,0004.49,0003.90
2022-04-26 12:04:00,,0829.6,5.01,0.00,22.9,22.0,00.0,31.9,24.7,14.2,0000.0,0007.87,0004.49,0003.86
2022-04-26 12:05:00,,0829.6,4.99,0.00,22.9,22.0,00.0,31.9,24.7,14.2,0000.0,0007.86,0004.47,0003.84
2022-04-26 12:06:00,,0829.6,4.99,0.00,22.9,22.0,00.0,31.9,24.7,14.1,0000.0,0008.04,0004.42,0003.81
2022-04-26 12:07:00,,0829.6,5.00,0.00,22.9,22.0,00.0,31.9,24.7,14.1,0000.0,0008.33,0004.44,0003.81
2022-04-26 12:08:00,,0829.6,5.00,0.00,22.9,22.0,00.0,31.9,24.7,14.1,0000.0,0008.51,0004.48,0003.81
2022-04-26 12:09:00,,0829.6,5.00,0.00,22.9,22.0,00.0,31.9,24.6,14.1,0000.0,0009.89,0004.51,0003.83
2022-04-26 12:10:00,,0829.6,5.01,0.00,22.9,22.0,00.0,31.9,24.6,14.1,0000.0,0009.99,0004.55,0003.85
2022-04-26 12:11:00,,0829.6,5.00,0.00,22.9,21.9,00.0,31.9,24.6,14.2,0000.0,0010.99,0004.60,0003.87
2022-04-26 12:12:00,,0829.6,5.00,0.00,22.9,21.9,00.0,31.9,24.6,14.2,0000.0,0011.45,0004.65,0003.89
2022-04-26 12:13:00,,0829.6,5.00,0.00,22.9,21.9,00.0,31.9,24.6,14.1,0000.0,0011.36,0004.64,0003.88
2022-04-26 12:14:00,,0829.7,5.00,0.00,22.8,21.8,00.0,31.9,24.5,14.1,0000.0,0011.38,0004.65,0003.88
2022-04-26 12:15:00,,0829.8,5.01,0.00,22.8,21.8,00.0,31.8,24.5,14.1,0000.0,0012.69,0004.61,0003.89
2022-04-26 12:16:00,,0829.8,5.01,0.00,22.8,21.7,00.0,31.8,24.5,14.0,0000.0,0012.72,0004.57,0003.88
2022-04-26 12:17:00,,0829.7,5.00,0.00,22.8,21.7,00.0,31.8,24.5,14.0,0000.0,0012.39,0004.54,0003.86
2022-04-26 12:18:00,,0829.6,5.00,0.00,22.8,21.8,00.0,31.8,24.6,13.8,0000.0,0012.25,0004.54,0003.82
2022-04-26 12:19:00,,0829.6,5.00,0.00,22.8,21.8,00.0,31.8,24.6,13.7,0000.0,0012.11,0004.50,0003.79
2022-04-26 12:20:00,,0829.6,4.99,0.00,22.8,21.8,00.0,31.8,24.6,13.9,0000.0,0010.83,0004.49,0003.74
2022-04-26 12:21:00,,0829.7,5.01,0.00,22.8,21.8,00.0,31.8,24.6,14.0,0000.0,0011.10,0004.48,0003.71
2022-04-26 12:22:00,,0829.7,5.00,0.00,22.8,21.8,00.0,31.8,24.6,14.0,0000.0,0010.05,0004.45,0003.69
2022-04-26 12:23:00,,0829.7,5.00,0.00,22.8,21.8,00.0,31.8,24.6,14.0,0000.0,0009.61,0004.39,0003.65
2022-04-26 12:24:00,,0829.6,4.99,0.00,22.8,21.8,00.0,31.8,24.6,13.7,0000.0,0009.65,0004.38,0003.62
2022-04-26 12:25:00,,0829.6,5.01,0.00,22.8,21.8,00.0,31.8,24.5,13.6,0000.0,0009.64,0004.37,0003.59
2022-04-26 12:26:00,,0829.6,4.98,0.00,22.8,21.8,00.0,31.8,24.6,13.4,0000.0,0008.44,0004.42,0003.56
2022-04-26 12:27:00,,0829.7,5.00,0.00,22.8,21.8,00.0,31.8,24.5,13.4,0000.0,0008.57,0004.48,0003.55
2022-04-26 12:28:00,,0829.7,5.00,0.00,22.8,21.8,00.0,31.8,24.5,13.5,0000.0,0008.80,0004.54,0003.54
2022-04-26 12:29:00,,0829.7,5.00,0.00,22.8,21.8,00.0,31.8,24.5,13.8,0000.0,0008.67,0004.51,0003.54
2022-04-26 12:30:00,,0829.7,5.00,0.00,22.8,21.8,00.0,31.8,24.5,13.9,0000.0,0008.73,0004.52,0003.55
2022-04-26 12:31:00,,0829.7,5.00,0.00,22.8,21.7,00.0,31.8,24.5,13.9,0000.0,0008.66,0004.50,0003.56
2022-04-26 12:32:00,,0829.6,5.00,0.00,22.7,21.7,00.0,31.8,24.4,13.9,0000.0,0008.49,0004.47,0003.55
2022-04-26 12:33:00,,0829.6,4.99,0.00,22.7,21.7,00.0,31.8,24.4,14.0,0000.0,0009.05,0004.47,0003.55
2022-04-26 12:34:00,,0829.6,5.00,0.00,22.7,21.7,00.0,31.7,24.5,14.1,0000.0,0009.48,0004.52,0003.56
2022-04-26 12:35:00,,0829.6,5.00,0.00,22.7,21.7,00.0,31.7,24.4,14.3,0000.0,0009.60,0004.56,0003.58
2022-04-26 12:36:00,,0829.6,5.00,0.00,22.7,21.7,00.0,31.7,24.5,14.2,0000.0,0009.67,0004.61,0003.60
2022-04-26 12:37:00,,0829.6,5.00,0.00,22.7,21.7,00.0,31.7,24.5,14.0,0000.0,0009.69,0004.62,0003.61
2022-04-26 12:38:00,,0829.6,5.01,0.00,22.7,21.8,00.0,31.7,24.5,13.8,0000.0,0009.84,0004.62,0003.61
2022-04-26 12:39:00,,0829.6,5.00,0.00,22.7,21.8,00.0,31.7,24.5,13.8,0000.0,0010.30,0004.59,0003.62
2022-04-26 12:40:00,,0829.6,5.00,0.00,22.7,21.8,00.0,31.7,24.5,13.8,0000.0,0010.41,0004.61,0003.62
2022-04-26 12:41:00,,0829.7,5.00,0.00,22.7,21.8,00.0,31.7,24.5,13.9,0000.0,0010.43,0004.61,0003.60
2022-04-26 12:42:00,,0829.7,5.00,0.00,22.7,21.8,00.0,31.7,24.5,14.0,0000.0,0010.67,0004.64,0003.58
2022-04-26 12:43:00,,0829.6,4.99,0.00,22.7,21.8,00.0,31.7,24.4,14.2,0000.0,0011.07,0004.62,0003.57
2022-04-26 12:44:00,,0829.6,5.00,0.00,22.6,21.7,00.0,31.7,24.4,14.1,0000.0,0010.85,0004.64,0003.55
2022-04-26 12:45:00,,0829.6,5.00,0.00,22.6,21.7,00.0,31.7,24.4,14.0,0000.0,0010.45,0004.61,0003.53
2022-04-26 12:46:00,,0829.5,4.99,0.00,22.6,21.7,00.0,31.7,24.4,14.1,0000.0,0010.27,0004.56,0003.51
2022-04-26 12:47:00,,0829.6,5.00,0.00,22.6,21.8,00.0,31.7,24.5,14.3,0000.0,0010.35,0004.50,0003.51
2022-04-26 12:48:00,,0829.6,4.99,0.00,22.7,21.8,00.0,31.7,24.5,14.5,0000.0,0010.35,0004.45,0003.51
2022-04-26 12:49:00,,0829.6,5.01,0.00,22.7,21.8,00.0,31.7,24.5,14.5,0000.0,0010.28,0004.41,0003.51
2022-04-26 12:50:00,,0829.6,4.99,0.00,22.7,21.8,00.0,31.7,24.5,14.4,0000.0,0010.39,0004.40,0003.52
2022-04-26 12:51:00,,0829.6,5.00,0.00,22.7,21.8,00.0,31.7,24.5,14.2,0000.0,0010.42,0004.38,0003.52
2022-04-26 12:52:00,,0829.6,5.03,0.00,22.7,21.8,00.0,31.7,24.5,14.2,0000.0,0010.27,0004.33,0003.53
2022-04-26 12:53:00,,0829.6,4.99,0.00,22.7,21.8,00.0,31.7,24.5,14.1,0000.0,0010.65,0004.31,0003.54
2022-04-26 12:54:00,,0829.6,5.00,0.00,22.7,21.8,00.0,31.7,24.5,14.1,0000.0,0010.24,0004.29,0003.57
2022-04-26 12:55:00,,0829.6,5.00,0.00,22.7,21.8,00.0,31.7,24.5,14.0,0000.0,0009.92,0004.31,0003.61
2022-04-26 12:56:00,,0829.7,5.00,0.00,22.7,21.9,00.0,31.7,24.5,13.9,0000.0,0009.94,0004.32,0003.63
2022-04-26 12:57:00,,0829.7,5.00,0.00,22.7,21.8,00.0,31.7,24.5,14.0,0000.0,0009.96,0004.35,0003.65
2022-04-26 12:58:00,,0829.7,5.00,0.00,22.7,21.8,00.0,31.7,24.5,13.6,0000.0,0009.93,0004.42,0003.65
2022-04-26 12:59:00,,0829.7,5.00,0.00,22.7,21.8,00.0,31.7,24.5,13.6,0000.0,0009.89,0004.44,0003.65
